Location: Unspecified
(35.6961°N, 0.0000°E)
Time: 13:52:24
(UTC+00:00)

Vanguard 2 - Visible Passes

Search period start: 23 May 2019 00:00
Search period end: 02 June 2019 00:00
Orbit: 553 x 2939 km, 32.9° (Epoch: 22 May)

Date Brightness Start Highest point End Pass type
(mag) Time Alt. Az. Time Alt. Az. Time Alt. Az.
23 May 9.3 20:34:26 10° W 20:48:34 70° SSW 20:54:17 26° ESE visible
23 May 9.7 22:48:26 10° W 22:55:41 30° WSW 22:55:41 30° WSW visible
24 May 9.3 20:52:48 10° W 21:06:30 62° SSW 21:11:05 32° SE visible
24 May 10.2 23:07:17 10° W 23:12:30 21° WSW 23:12:30 21° WSW visible
25 May 9.2 21:11:12 10° W 21:24:19 53° SSW 21:27:55 36° SSE visible
25 May 10.6 23:26:45 10° W 23:29:19 14° WSW 23:29:19 14° WSW visible
26 May 9.9 19:15:26 10° W 19:32:02 76° S 19:42:34 10° ESE visible
26 May 9.4 21:29:39 10° W 21:41:59 43° SSW 21:44:43 36° S visible
27 May 9.8 19:33:48 10° W 19:50:05 70° SSW 20:00:08 11° ESE visible
27 May 9.7 21:48:17 10° W 21:59:29 34° SW 22:01:32 31° SSW visible
28 May 9.9 19:52:10 10° W 20:08:02 62° SSW 20:16:57 15° SE visible
28 May 10.1 22:07:12 10° W 22:16:51 26° SW 22:18:22 25° SSW visible
29 May 10.0 20:10:35 10° W 20:25:51 54° SSW 20:33:47 19° SE visible
29 May 10.5 22:26:43 10° W 22:34:06 18° SW 22:35:12 18° SW visible
30 May 10.1 20:29:05 10° W 20:43:30 44° SW 20:50:38 20° SSE visible
30 May 10.8 22:47:50 10° WSW 22:51:17 12° SW 22:52:03 12° SW visible
31 May 10.2 20:47:45 10° W 21:01:00 35° SW 21:07:30 20° S visible
01 Jun 10.4 21:06:44 10° W 21:18:22 27° SW 21:24:23 17° S visible
